BENVENUTI AL 154° GRUPPO VIRTUALE
Antonio Laperuta

Antonio Laperuta

OCU 2  Velivolo 104 FRERCCIA10 Pilot, FRECCIA01 Rio     Velivolo 103 FRERCCIA02 Pilot, FRECCIA14 Rio     Punto attesa pista 08   
Saturday, 23 May 2020 12:16

Live STREAM Rio

FRECCIA01 RIO
Saturday, 23 May 2020 16:12

Live STREAM Pilot

FRECCIA02 PILOT
Saturday, 23 May 2020 02:21

OCU1

Primo giorno di addestramento OCU su F-14B, Pilot per FRECCIA10 sul 101, Rio per il neo promosso FRECCIA14 sul 103.
Thursday, 03 October 2019 10:24

Primi test MB339A su piattaforma DCS

Mercoledì 4 Settembere alcuni membri del gruppo hanno effettuato i primi test del nuovo velivolo per DCS MB339A, sviluppato da "Frecce Tricolori Virtuali http://www.freccetricolorivirtuali.net/". La sessione di volo, svolta all'interno dello scenario standard del Caucaso, ha visto il decollo di due velivoli dalla base di Kutaisi per recarsi presso il vicino poligono Air-to-ground, al fine di poter testare la qualità di volo, la strumentazione e l'armamento in dotazione. La missione ha dato un esito molto positivo, in quanto il velivolo si è dimostrato estremamente efficente e adatto allo scopo addestrativo basico per il piloti del gruppo che si dovranno introdurre sulla piattaforma DCS, in vista di intraprendere un addestramento con moduli più complessi per affrontare la famosa esercitazione online Red Flag, insieme ad altri gruppi e piloti
Wednesday, 19 November 2014 01:00

Lorem ipsum dolor sit amet

qui officia deserunt mollit anim id est laborum. Sed ut perspiciatis unde omnis iste natus error sit voluptatem accusantium doloremque laudantium, totam rem aperiam, eaque ipsa quae ab illo inventore veritatis et quasi mountains architecto beatae vitae dicta sunt explicabo.
Lorem ipsum dolor sit amet, consectetur adipisicing elit, sed do eiusmod tempor incididunt ut labore et dolore magna aliqua. Ut enim ad minim veniam, quis nostrud exercitation ullamco laboris nisi ut aliquip ex ea commodo consequat. Duis aute irure dolor in reprehenderit in voluptate velit esse cillum dolore eu fugiat nulla pariatur. Excepteur sint occaecat cupidatat non proident, sunt in culpa qui officia deserunt mollit anim id est laborum. Sed ut perspiciatis unde omnis iste natus error sit voluptatem accusantium doloremque laudantium, totam rem aperiam, eaque ipsa quae ab illo inventore veritatis et quasi architecto beatae vitae dicta sunt explicabo.

METAR & TAF

[Source: ADDS]
METAR
LIPL 041955Z 27004KT 9999 SCT040 22/20 Q1014 RMK BKN SCT100 VIS MIN 9999 WIND THR31 25003KT WIND THR13 27005KT BLU =
COR LIPL 041700Z 0418/0503 13010KT 8000 SCT025 SCT040 TEMPO 0418/0419 20015G25KT 4000 TSRA FEW012CB BKN025
TAF
COR LIPL 041700Z 0418/0503 13010KT 8000 SCT025 SCT040 TEMPO 0418/0419 20015G25KT 4000 TSRA FEW012CB BKN025 =

Notice: Undefined index: sun in /web/htdocs/www.154gruppovirtuale.it/home/modules/mod_wx/tmpl/default.php on line 13

Official Tools

CombatFlite Logo  
 
   

Network

Simulation Platform